sat.trackr.live / text

‹ back to catalog

STARLINK-1958

NORAD 47559 · 2021-009M

PAYLOAD ACTIVE UNKNOWN

§ Identity

Operator
Country
US
Launch date
2021-02-04
Launch site
AFETR
Launch vehicle
Mass (kg)
RCS (m²)

Purposes: comms

External: N2YO · Heavens-Above · Gunter

§ Orbital elements

Epoch: 2026-06-22T00:58:06.882816Z

Period
88.03 min
Inclination
53.0163°
Eccentricity
0.0007303
Mean motion
16.35794540 rev/d
Perigee alt
172.2 km
Apogee alt
181.8 km
Semi-major
6,555.2 km
B*
7.0628e-4
RAAN
155.0458°
Arg perigee
255.4573°
Mean anomaly
104.5662°
Rev number
29,817

§ Raw data

STARLINK-19581 47559U 21009M   26173.04035744  .06012951  12223-4  70628-3 0  99922 47559  53.0163 155.0458 0007303 255.4573 104.5662 16.35794540298177

JSON: /api/v1/satellites/47559 · /tle

For live sub-satellite position, see the globe view (requires WebGL).

§ Visibility from observer

Set your observer location to see the next 7 days of passes ≥ 10°. The values pass through the URL so the page stays shareable.

No JS? Fill the form by hand. The geolocation button needs JavaScript.